カタログに戻る

YEYA-2

運用中科学SSO
NORAD 67288·PAYLOAD·🇷🇺 Russia
この衛星名は、まだ公式ソースで確認されていません。

打ち上げ Dec 28, 2025 から Vostochny Cosmodrome

Loading…

次のパス (今後24時間)

TLE

最新Source: Space-Track

元期: Sep 14, 2026, 11:02 UTC

1 67288U 25313AS  26257.46006814  .00003861  00000-0  16259-3 0  9990
2 67288  97.3852 330.8725 0012180  42.5676 317.6503 15.23888044 39557

AllMySatでYEYA-2をリアルタイム追跡

Download on the App Store